N3285G X04-KLAL

Flight info

Callsign N3285G
Flight time N/A
Altitude VFR
Route VFF KORL STOP THEN LAL
Aircraft BE36/L-DOV/C

Departure

Time N/A
Airport X04

Arrival

Time 2026-04-22 00:23
Airport Lakeland Linder International Airport (KLAL)
Time Latitude Longitude Altitude Speed Heading
2026-04-21 23:28 28.61599 -81.55638 1620 ft 118 kts 124°
2026-04-21 23:28 28.61079 -81.54914 1653 ft 116 kts 120°
2026-04-21 23:29 28.60639 -81.54162 1644 ft 115 kts 108°
2026-04-21 23:29 28.60348 -81.53309 1674 ft 115 kts 107°
2026-04-21 23:29 28.60035 -81.52480 1750 ft 112 kts 108°
2026-04-21 23:29 28.59654 -81.51710 1794 ft 111 kts 117°
2026-04-21 23:30 28.59112 -81.51057 1821 ft 114 kts 128°
2026-04-21 23:30 28.58521 -81.50459 1838 ft 114 kts 130°
2026-04-21 23:30 28.57909 -81.49894 1760 ft 114 kts 132°
2026-04-21 23:30 28.57279 -81.49335 1638 ft 115 kts 129°
2026-04-21 23:31 28.56691 -81.48737 1548 ft 112 kts 126°
2026-04-21 23:31 28.56125 -81.48115 1441 ft 114 kts 124°
2026-04-21 23:31 28.55603 -81.47475 1445 ft 110 kts 122°
2026-04-21 23:31 28.55110 -81.46826 1452 ft 107 kts 120°
2026-04-21 23:32 28.54650 -81.46166 1494 ft 107 kts 120°
2026-04-21 23:32 28.54175 -81.45512 1504 ft 107 kts 122°
2026-04-21 23:32 28.53676 -81.44850 1478 ft 111 kts 123°
2026-04-21 23:32 28.53183 -81.44175 1497 ft 111 kts 119°
2026-04-21 23:33 28.52766 -81.43404 1527 ft 116 kts 108°
2026-04-21 23:33 28.52510 -81.42521 1597 ft 118 kts 98°
2026-04-21 23:33 28.52378 -81.41597 1615 ft 119 kts 89°
2026-04-21 23:33 28.52362 -81.40745 1605 ft 100 kts 85°
2026-04-21 23:34 28.52386 -81.39981 1519 ft 90 kts 83°
2026-04-21 23:34 28.52471 -81.39343 1402 ft 77 kts 77°
2026-04-21 23:34 28.52563 -81.38805 1163 ft 66 kts 77°
2026-04-21 23:34 28.52685 -81.38323 1069 ft 63 kts 73°
2026-04-21 23:35 28.52847 -81.37858 976 ft 62 kts 70°
2026-04-21 23:35 28.52984 -81.37423 871 ft 56 kts 77°
2026-04-21 23:35 28.53134 -81.36996 692 ft 63 kts 76°
2026-04-21 23:35 28.53307 -81.36522 625 ft 67 kts 76°
2026-04-21 23:36 28.53480 -81.36044 560 ft 66 kts 70°
2026-04-21 23:36 28.53649 -81.35574 518 ft 59 kts 63°
2026-04-21 23:36 28.53832 -81.35148 374 ft 62 kts 70°
2026-04-21 23:36 28.54004 -81.34688 264 ft 66 kts 70°
2026-04-21 23:37 28.54176 -81.34213 196 ft 63 kts 69°
2026-04-21 23:37 28.54335 -81.33805 107 ft 43 kts 69°
2026-04-21 23:37 28.54426 -81.33556 109 ft 24 kts 61°
2026-04-21 23:37 28.54515 -81.33509 111 ft 14 kts 310°
2026-04-21 23:38 28.54560 -81.33595 111 ft 13 kts 252°
2026-04-21 23:38 28.54511 -81.33723 109 ft 22 kts 247°
2026-04-21 23:38 28.54440 -81.33855 109 ft 17 kts 222°
2026-04-21 23:38 28.54400 -81.33931 108 ft 0 kts 202°
2026-04-21 23:40 28.54360 -81.33947 107 ft 0 kts 184°
2026-04-21 23:40 28.54344 -81.33946 106 ft 12 kts 172°
2026-04-21 23:40 28.54302 -81.33874 106 ft 23 kts 68°
2026-04-21 23:40 28.54450 -81.33503 137 ft 68 kts 68°
2026-04-21 23:41 28.54668 -81.32937 265 ft 91 kts 70°
2026-04-21 23:41 28.54922 -81.32203 556 ft 108 kts 69°
2026-04-21 23:41 28.55317 -81.31513 1021 ft 102 kts 36°
2026-04-21 23:41 28.56093 -81.31586 1304 ft 124 kts 347°
2026-04-21 23:42 28.56799 -81.32158 1363 ft 123 kts 307°
2026-04-21 23:42 28.56858 -81.33103 1141 ft 122 kts 238°
2026-04-21 23:42 28.56415 -81.33951 1105 ft 126 kts 235°
2026-04-21 23:42 28.55959 -81.34760 1072 ft 115 kts 234°
2026-04-21 23:43 28.55519 -81.35503 939 ft 112 kts 227°
2026-04-21 23:43 28.54934 -81.35881 808 ft 88 kts 162°
2026-04-21 23:43 28.54418 -81.35551 680 ft 85 kts 133°
2026-04-21 23:43 28.53970 -81.35168 507 ft 71 kts 123°
2026-04-21 23:44 28.53990 -81.34728 323 ft 72 kts 68°
2026-04-21 23:44 28.54177 -81.34215 203 ft 67 kts 69°
2026-04-21 23:44 28.54350 -81.33770 113 ft 51 kts 70°
2026-04-21 23:44 28.54453 -81.33491 111 ft 24 kts 68°
2026-04-21 23:45 28.54613 -81.33068 153 ft 85 kts 65°
2026-04-21 23:45 28.55251 -81.31756 880 ft 102 kts 34°
2026-04-21 23:45 28.55992 -81.32015 958 ft 130 kts 337°
2026-04-21 23:46 28.56444 -81.32819 989 ft 135 kts 249°
2026-04-21 23:46 28.56019 -81.33764 1049 ft 133 kts 239°
2026-04-21 23:46 28.55611 -81.34713 1085 ft 131 kts 243°
2026-04-21 23:46 28.55230 -81.35620 964 ft 120 kts 240°
2026-04-21 23:47 28.54818 -81.36367 754 ft 95 kts 193°
2026-04-21 23:47 28.54246 -81.36262 637 ft 84 kts 135°
2026-04-21 23:47 28.53812 -81.35860 615 ft 78 kts 111°
2026-04-21 23:47 28.53812 -81.35290 489 ft 68 kts 78°
2026-04-21 23:48 28.53954 -81.34835 298 ft 66 kts 76°
2026-04-21 23:48 28.54136 -81.34327 234 ft 65 kts 65°
2026-04-21 23:48 28.54302 -81.33885 117 ft 54 kts 69°
2026-04-21 23:48 28.54424 -81.33568 109 ft 34 kts 70°
2026-04-21 23:49 28.54603 -81.33099 146 ft 89 kts 67°
2026-04-21 23:49 28.54858 -81.32379 392 ft 107 kts 70°
2026-04-21 23:49 28.55145 -81.31555 686 ft 115 kts 66°
2026-04-21 23:49 28.55800 -81.31141 1082 ft 124 kts 358°
2026-04-21 23:50 28.56591 -81.31657 1285 ft 138 kts 314°
2026-04-21 23:50 28.56875 -81.32698 1470 ft 143 kts 269°
2026-04-21 23:50 28.56668 -81.33830 1526 ft 150 kts 248°
2026-04-21 23:50 28.56303 -81.34937 1516 ft 150 kts 245°
2026-04-21 23:51 28.55868 -81.36014 1481 ft 146 kts 242°
2026-04-21 23:51 28.55458 -81.37012 1504 ft 138 kts 240°
2026-04-21 23:51 28.55001 -81.37960 1511 ft 137 kts 234°
2026-04-21 23:51 28.54480 -81.38860 1506 ft 135 kts 230°
2026-04-21 23:52 28.53904 -81.39714 1468 ft 134 kts 227°
2026-04-21 23:52 28.53313 -81.40502 1517 ft 132 kts 226°
2026-04-21 23:52 28.52652 -81.41316 1358 ft 142 kts 219°
2026-04-21 23:52 28.51916 -81.42084 1173 ft 146 kts 217°
2026-04-21 23:53 28.51177 -81.42826 1174 ft 140 kts 215°
2026-04-21 23:53 28.50495 -81.43520 1241 ft 128 kts 218°
2026-04-21 23:53 28.49965 -81.44326 1358 ft 122 kts 228°
2026-04-21 23:53 28.49491 -81.45075 1466 ft 115 kts 228°
2026-04-21 23:54 28.49036 -81.45799 1481 ft 109 kts 228°
2026-04-21 23:54 28.48607 -81.46499 1507 ft 106 kts 231°
2026-04-21 23:54 28.48197 -81.47180 1531 ft 103 kts 228°
2026-04-21 23:54 28.47741 -81.47884 1575 ft 120 kts 229°
2026-04-21 23:55 28.47226 -81.48709 1574 ft 135 kts 229°
2026-04-21 23:55 28.46678 -81.49623 1563 ft 142 kts 230°
2026-04-21 23:55 28.46109 -81.50508 1559 ft 141 kts 229°
2026-04-21 23:55 28.45518 -81.51404 1569 ft 143 kts 229°
2026-04-21 23:56 28.44929 -81.52312 1522 ft 141 kts 229°
2026-04-21 23:56 28.44360 -81.53206 1515 ft 138 kts 229°
2026-04-21 23:56 28.43777 -81.54066 1530 ft 137 kts 230°
2026-04-21 23:56 28.43214 -81.54931 1524 ft 136 kts 229°
2026-04-21 23:57 28.42649 -81.55793 1532 ft 136 kts 230°
2026-04-21 23:57 28.42083 -81.56627 1522 ft 133 kts 229°
2026-04-21 23:57 28.41531 -81.57467 1539 ft 134 kts 227°
2026-04-21 23:57 28.40973 -81.58333 1548 ft 137 kts 230°
2026-04-21 23:58 28.40401 -81.59207 1535 ft 137 kts 227°
2026-04-21 23:58 28.39823 -81.60068 1506 ft 136 kts 228°
2026-04-21 23:58 28.39260 -81.60935 1523 ft 137 kts 229°
2026-04-21 23:58 28.38672 -81.61803 1545 ft 140 kts 229°
2026-04-21 23:59 28.38091 -81.62710 1532 ft 142 kts 230°
2026-04-21 23:59 28.37504 -81.63605 1546 ft 141 kts 229°
2026-04-21 23:59 28.36938 -81.64520 1571 ft 143 kts 238°
2026-04-21 23:59 28.36540 -81.65557 1543 ft 143 kts 249°
2026-04-22 00:00 28.36222 -81.66618 1523 ft 141 kts 249°
2026-04-22 00:00 28.35893 -81.67663 1473 ft 142 kts 248°
2026-04-22 00:00 28.35537 -81.68722 1437 ft 145 kts 246°
2026-04-22 00:00 28.35165 -81.69779 1383 ft 147 kts 244°
2026-04-22 00:01 28.34775 -81.70861 1343 ft 149 kts 245°
2026-04-22 00:01 28.34368 -81.71948 1267 ft 149 kts 243°
2026-04-22 00:01 28.33983 -81.73029 1222 ft 146 kts 247°
2026-04-22 00:01 28.33617 -81.74090 1197 ft 143 kts 249°
2026-04-22 00:02 28.33266 -81.75111 1186 ft 135 kts 241°
2026-04-22 00:02 28.32866 -81.76066 1215 ft 133 kts 242°
2026-04-22 00:02 28.32493 -81.77027 1254 ft 134 kts 244°
2026-04-22 00:02 28.32131 -81.78007 1254 ft 135 kts 243°
2026-04-22 00:03 28.31780 -81.78983 1241 ft 133 kts 242°
2026-04-22 00:03 28.31432 -81.79940 1235 ft 130 kts 244°
2026-04-22 00:03 28.31069 -81.80894 1268 ft 133 kts 242°
2026-04-22 00:03 28.30711 -81.81859 1274 ft 133 kts 244°
2026-04-22 00:04 28.30367 -81.82830 1253 ft 133 kts 246°
2026-04-22 00:04 28.30010 -81.83795 1246 ft 133 kts 243°
2026-04-22 00:04 28.29647 -81.84754 1228 ft 133 kts 241°
2026-04-22 00:04 28.29306 -81.85700 1205 ft 123 kts 243°
2026-04-22 00:05 28.28982 -81.86547 1248 ft 114 kts 244°
2026-04-22 00:05 28.28667 -81.87388 1248 ft 117 kts 246°
2026-04-22 00:05 28.28360 -81.88250 1268 ft 118 kts 243°
2026-04-22 00:05 28.28048 -81.89114 1282 ft 119 kts 242°
2026-04-22 00:06 28.27719 -81.89998 1272 ft 123 kts 244°
2026-04-22 00:06 28.27292 -81.90823 1272 ft 117 kts 213°
2026-04-22 00:06 28.26585 -81.91098 1284 ft 105 kts 171°
2026-04-22 00:06 28.25946 -81.90827 1270 ft 95 kts 131°
2026-04-22 00:07 28.25474 -81.90296 1295 ft 97 kts 126°
2026-04-22 00:07 28.24976 -81.89768 1297 ft 99 kts 127°
2026-04-22 00:07 28.24486 -81.89262 1258 ft 89 kts 127°
2026-04-22 00:07 28.24069 -81.88822 1230 ft 77 kts 124°
2026-04-22 00:08 28.23701 -81.88405 1230 ft 77 kts 124°
2026-04-22 00:08 28.23311 -81.87953 1255 ft 84 kts 126°
2026-04-22 00:08 28.22874 -81.87476 1276 ft 89 kts 130°
2026-04-22 00:08 28.22415 -81.87008 1284 ft 88 kts 132°
2026-04-22 00:09 28.21969 -81.86544 1278 ft 86 kts 131°
2026-04-22 00:09 28.21541 -81.86081 1270 ft 84 kts 128°
2026-04-22 00:09 28.21266 -81.85773 1264 ft 84 kts 128°
2026-04-22 00:09 28.20845 -81.85313 1280 ft 84 kts 128°
2026-04-22 00:10 28.20277 -81.84704 1289 ft 86 kts 128°
2026-04-22 00:10 28.19841 -81.84238 1284 ft 87 kts 128°
2026-04-22 00:10 28.19402 -81.83765 1256 ft 87 kts 129°
2026-04-22 00:10 28.19106 -81.83453 1238 ft 85 kts 128°
2026-04-22 00:11 28.18692 -81.83005 1223 ft 80 kts 125°
2026-04-22 00:11 28.18306 -81.82572 1210 ft 78 kts 128°
2026-04-22 00:11 28.17919 -81.82170 1203 ft 74 kts 125°
2026-04-22 00:11 28.17561 -81.81771 1207 ft 71 kts 123°
2026-04-22 00:12 28.17201 -81.81397 1216 ft 69 kts 123°
2026-04-22 00:12 28.16844 -81.81034 1226 ft 73 kts 135°
2026-04-22 00:12 28.16286 -81.80946 1228 ft 92 kts 180°
2026-04-22 00:12 28.15641 -81.81219 1266 ft 104 kts 189°
2026-04-22 00:13 28.14949 -81.81568 1286 ft 112 kts 191°
2026-04-22 00:13 28.14226 -81.81934 1275 ft 115 kts 195°
2026-04-22 00:13 28.13489 -81.82302 1272 ft 116 kts 194°
2026-04-22 00:13 28.12740 -81.82666 1272 ft 118 kts 191°
2026-04-22 00:14 28.12018 -81.83108 1252 ft 120 kts 218°
2026-04-22 00:14 28.11591 -81.83917 1231 ft 120 kts 248°
2026-04-22 00:14 28.11287 -81.84774 1244 ft 116 kts 245°
2026-04-22 00:14 28.10948 -81.85600 1253 ft 118 kts 243°
2026-04-22 00:15 28.10604 -81.86457 1257 ft 121 kts 243°
2026-04-22 00:15 28.10247 -81.87323 1261 ft 121 kts 241°
2026-04-22 00:15 28.09901 -81.88187 1247 ft 120 kts 241°
2026-04-22 00:15 28.09556 -81.89048 1272 ft 121 kts 243°
2026-04-22 00:16 28.09209 -81.89922 1271 ft 122 kts 240°
2026-04-22 00:16 28.08863 -81.90806 1253 ft 122 kts 244°
2026-04-22 00:16 28.08521 -81.91677 1259 ft 122 kts 241°
2026-04-22 00:16 28.08200 -81.92552 1213 ft 119 kts 253°
2026-04-22 00:17 28.08148 -81.93493 1247 ft 121 kts 269°
2026-04-22 00:17 28.08132 -81.94458 1243 ft 123 kts 266°
2026-04-22 00:17 28.08089 -81.95409 1251 ft 122 kts 264°
2026-04-22 00:17 28.08070 -81.96366 1233 ft 120 kts 268°
2026-04-22 00:18 28.08025 -81.97302 1221 ft 119 kts 254°
2026-04-22 00:18 28.07604 -81.98080 1244 ft 117 kts 224°
2026-04-22 00:18 28.07110 -81.98808 1261 ft 116 kts 224°
2026-04-22 00:18 28.06625 -81.99521 1222 ft 114 kts 223°
2026-04-22 00:19 28.06139 -82.00253 1214 ft 116 kts 226°
2026-04-22 00:19 28.05626 -82.00953 1230 ft 118 kts 223°
2026-04-22 00:19 28.05107 -82.01669 1152 ft 119 kts 218°
2026-04-22 00:19 28.04454 -82.01938 1207 ft 95 kts 171°
2026-04-22 00:20 28.03783 -82.01897 1205 ft 101 kts 171°
2026-04-22 00:20 28.03048 -82.01885 1149 ft 107 kts 171°
2026-04-22 00:20 28.02306 -82.01902 1172 ft 106 kts 169°
2026-04-22 00:20 28.01565 -82.01925 1093 ft 107 kts 174°
2026-04-22 00:21 28.00844 -82.01992 1157 ft 103 kts 171°
2026-04-22 00:21 28.00163 -82.02111 1108 ft 96 kts 188°
2026-04-22 00:21 27.99722 -82.02665 1085 ft 98 kts 259°
2026-04-22 00:21 27.99696 -82.03478 1038 ft 103 kts 271°
2026-04-22 00:22 27.99721 -82.04278 993 ft 104 kts 269°
2026-04-22 00:22 27.99600 -82.05027 960 ft 90 kts 203°
2026-04-22 00:22 27.99120 -82.04850 820 ft 76 kts 113°
2026-04-22 00:22 27.99035 -82.04253 560 ft 77 kts 89°
2026-04-22 00:23 27.99037 -82.03717 416 ft 65 kts 86°
2026-04-22 00:23 27.99043 -82.03214 300 ft 60 kts 88°
2026-04-22 00:23 27.99041 -82.02769 195 ft 54 kts 90°
2026-04-22 00:23 27.99037 -82.02367 141 ft 45 kts 90°
2026-04-22 00:24 27.99039 -82.02057 137 ft 38 kts 89°
2026-04-22 00:24 27.99040 -82.01739 138 ft 44 kts 90°
2026-04-22 00:24 27.99042 -82.01416 139 ft 38 kts 85°
2026-04-22 00:24 27.99044 -82.01144 139 ft 31 kts 92°
2026-04-22 00:25 27.99042 -82.00931 143 ft 24 kts 92°
2026-04-22 00:25 27.99023 -82.00782 144 ft 14 kts 142°
2026-04-22 00:25 27.98896 -82.00760 141 ft 25 kts 175°
2026-04-22 00:25 27.98783 -82.00783 138 ft 14 kts 259°
2026-04-22 00:26 27.98771 -82.00935 138 ft 21 kts 263°
2026-04-22 00:26 27.98756 -82.01097 140 ft 17 kts 262°
2026-04-22 00:26 27.98741 -82.01234 140 ft 18 kts 261°
2026-04-22 00:26 27.98732 -82.01397 140 ft 23 kts 271°
2026-04-22 00:27 27.98693 -82.01549 145 ft 16 kts 217°
2026-04-22 00:27 27.98621 -82.01624 145 ft 12 kts 224°
2026-04-22 00:27 27.98553 -82.01663 144 ft 12 kts 172°
2026-04-22 00:27 27.98501 -82.01631 143 ft 11 kts 84°
2026-04-22 00:28 27.98527 -82.01552 142 ft 8 kts 15°
2026-04-22 00:28 27.98533 -82.01551 142 ft 0 kts
2026-04-22 00:35 27.98534 -82.01551 142 ft 3 kts
2026-04-22 00:35 27.98495 -82.01607 143 ft 11 kts 166°
2026-04-22 00:36 27.98472 -82.01599 143 ft 0 kts 152°
2026-04-22 01:04 27.98468 -82.01589 143 ft 5 kts 66°
2026-04-22 01:04 27.98512 -82.01633 143 ft 13 kts 302°
2026-04-22 01:04 27.98556 -82.01716 146 ft 11 kts 300°
2026-04-22 01:05 27.98596 -82.01796 146 ft 14 kts 299°
2026-04-22 01:05 27.98641 -82.01874 143 ft 8 kts 344°
2026-04-22 01:05 27.98681 -82.01843 142 ft 8 kts 45°
2026-04-22 01:05 27.98695 -82.01830 142 ft 5 kts 22°
2026-04-22 01:06 27.98732 -82.01899 141 ft 15 kts 271°
2026-04-22 01:06 27.98734 -82.02024 141 ft 19 kts 267°
2026-04-22 01:06 27.98733 -82.02204 137 ft 25 kts 266°
2026-04-22 01:06 27.98778 -82.02297 134 ft 13 kts 360°
2026-04-22 01:07 27.98816 -82.02375 134 ft 15 kts 271°
2026-04-22 01:07 27.98816 -82.02522 134 ft 23 kts 267°
2026-04-22 01:07 27.98815 -82.02714 132 ft 25 kts 270°
2026-04-22 01:07 27.98814 -82.02893 132 ft 14 kts 267°
2026-04-22 01:08 27.98811 -82.02996 133 ft 15 kts 268°
2026-04-22 01:08 27.98813 -82.03126 135 ft 19 kts 272°
2026-04-22 01:08 27.98815 -82.03286 135 ft 18 kts 272°
2026-04-22 01:08 27.98842 -82.03345 135 ft 0 kts
2026-04-22 01:09 27.98866 -82.03345 135 ft 11 kts
2026-04-22 01:09 27.98925 -82.03324 135 ft 5 kts 91°
2026-04-22 01:09 27.98925 -82.03317 135 ft 4 kts 91°
2026-04-22 01:10 27.98926 -82.03196 134 ft 39 kts 90°
2026-04-22 01:10 27.98921 -82.02712 164 ft 77 kts 92°
2026-04-22 01:10 27.98923 -82.02024 305 ft 93 kts 87°
2026-04-22 01:10 27.98912 -82.01244 493 ft 104 kts 88°
2026-04-22 01:11 27.98899 -82.00369 702 ft 118 kts 90°
2026-04-22 01:11 27.98887 -81.99428 909 ft 119 kts 90°
2026-04-22 01:11 27.98883 -81.98511 1044 ft 117 kts 89°
2026-04-22 01:11 27.98877 -81.97584 1239 ft 120 kts 89°
2026-04-22 01:12 27.98862 -81.96628 1417 ft 123 kts 89°
2026-04-22 01:12 27.98844 -81.95648 1616 ft 126 kts 90°
2026-04-22 01:12 27.98846 -81.94651 1828 ft 127 kts 90°
2026-04-22 01:12 27.98860 -81.93655 2023 ft 125 kts 90°
2026-04-22 01:13 27.98879 -81.92678 2201 ft 123 kts 90°
2026-04-22 01:13 27.98899 -81.91709 2302 ft 129 kts 89°
2026-04-22 01:13 27.98912 -81.90667 2306 ft 133 kts 89°
2026-04-22 01:13 27.98903 -81.89618 2317 ft 133 kts 89°
2026-04-22 01:14 27.98912 -81.88576 2311 ft 132 kts 81°
2026-04-22 01:14 27.99349 -81.87675 2303 ft 132 kts 60°
2026-04-22 01:14 27.99897 -81.86835 2299 ft 133 kts 57°
2026-04-22 01:14 28.00456 -81.86000 2307 ft 134 kts 56°
2026-04-22 01:15 28.01018 -81.85164 2282 ft 133 kts 57°
2026-04-22 01:15 28.01583 -81.84371 2271 ft 129 kts 56°
2026-04-22 01:15 28.02146 -81.83579 2286 ft 126 kts 56°
2026-04-22 01:15 28.02673 -81.82816 2274 ft 124 kts 57°
2026-04-22 01:16 28.03211 -81.82048 2262 ft 128 kts 56°
2026-04-22 01:16 28.03787 -81.81237 2274 ft 135 kts 56°
2026-04-22 01:16 28.04370 -81.80388 2283 ft 138 kts 56°
2026-04-22 01:16 28.04968 -81.79514 2272 ft 142 kts 56°
2026-04-22 01:17 28.05582 -81.78619 2192 ft 146 kts 57°
2026-04-22 01:17 28.06237 -81.77714 2075 ft 153 kts 43°
2026-04-22 01:17 28.07278 -81.77383 1951 ft 166 kts
2026-04-22 01:17 28.08441 -81.77427 1829 ft 168 kts
2026-04-22 01:18 28.09617 -81.77570 1736 ft 171 kts
2026-04-22 01:18 28.10810 -81.77744 1620 ft 173 kts
2026-04-22 01:18 28.12002 -81.77949 1533 ft 173 kts
2026-04-22 01:18 28.13187 -81.78154 1434 ft 175 kts 359°
2026-04-22 01:19 28.14392 -81.78337 1318 ft 174 kts 359°
2026-04-22 01:19 28.15592 -81.78528 1288 ft 174 kts 357°
2026-04-22 01:19 28.16787 -81.78690 1267 ft 171 kts
2026-04-22 01:19 28.17955 -81.78853 1256 ft 167 kts
2026-04-22 01:20 28.19082 -81.78983 1257 ft 158 kts 360°
2026-04-22 01:20 28.20058 -81.79364 1360 ft 149 kts 316°
2026-04-22 01:20 28.20142 -81.80433 1289 ft 139 kts 232°
2026-04-22 01:20 28.19413 -81.80842 1207 ft 111 kts 172°
2026-04-22 01:21 28.18693 -81.80754 1189 ft 100 kts 166°
2026-04-22 01:21 28.17990 -81.80771 1181 ft 102 kts 173°
2026-04-22 01:21 28.17308 -81.80797 1187 ft 96 kts 170°
2026-04-22 01:21 28.16668 -81.80798 1227 ft 89 kts 173°
2026-04-22 01:22 28.16065 -81.81038 1266 ft 99 kts 197°
2026-04-22 01:22 28.15440 -81.81376 1199 ft 100 kts 187°
2026-04-22 01:22 28.14788 -81.81669 1172 ft 101 kts 191°
2026-04-22 01:22 28.14138 -81.81936 1247 ft 101 kts 187°
2026-04-22 01:23 28.13455 -81.82212 1301 ft 106 kts 185°
2026-04-22 01:23 28.12772 -81.82509 1359 ft 108 kts 190°
2026-04-22 01:23 28.12057 -81.82766 1343 ft 109 kts 188°
2026-04-22 01:23 28.11334 -81.83132 1260 ft 120 kts 211°
2026-04-22 01:24 28.10796 -81.83888 1238 ft 124 kts 243°
2026-04-22 01:24 28.10485 -81.84781 1174 ft 119 kts 253°
2026-04-22 01:24 28.10279 -81.85656 1172 ft 112 kts 258°
2026-04-22 01:24 28.10109 -81.86511 1170 ft 114 kts 254°
2026-04-22 01:25 28.09869 -81.87379 1195 ft 119 kts 248°
2026-04-22 01:25 28.09540 -81.88257 1190 ft 125 kts 245°
2026-04-22 01:25 28.09248 -81.89190 1210 ft 121 kts 249°
2026-04-22 01:25 28.09032 -81.90134 1144 ft 128 kts 257°
2026-04-22 01:26 28.08845 -81.91110 1196 ft 124 kts 256°
2026-04-22 01:26 28.08637 -81.92085 1163 ft 130 kts 262°
2026-04-22 01:26 28.08583 -81.93098 1211 ft 127 kts 266°
2026-04-22 01:26 28.08544 -81.94081 1205 ft 125 kts 269°
2026-04-22 01:27 28.08535 -81.95098 1150 ft 133 kts 272°
2026-04-22 01:27 28.08500 -81.96144 1151 ft 131 kts 263°
2026-04-22 01:27 28.08252 -81.97094 1185 ft 122 kts 240°
2026-04-22 01:27 28.07815 -81.97908 1216 ft 120 kts 227°
2026-04-22 01:28 28.07308 -81.98651 1218 ft 118 kts 224°
2026-04-22 01:28 28.06783 -81.99383 1125 ft 121 kts 225°
2026-04-22 01:28 28.06267 -82.00110 1206 ft 118 kts 223°
2026-04-22 01:28 28.05694 -82.00769 1173 ft 122 kts 218°
2026-04-22 01:29 28.05123 -82.01494 1131 ft 122 kts 222°
2026-04-22 01:29 28.04486 -82.02014 1225 ft 108 kts 181°
2026-04-22 01:29 28.03727 -82.02126 1168 ft 111 kts 181°
2026-04-22 01:29 28.02982 -82.02234 1212 ft 108 kts 175°
2026-04-22 01:30 28.02239 -82.02265 1198 ft 108 kts 169°
2026-04-22 01:30 28.01469 -82.02237 1212 ft 113 kts 171°
2026-04-22 01:30 28.00725 -82.02482 1272 ft 119 kts 226°
2026-04-22 01:30 28.00533 -82.03430 1174 ft 135 kts 267°
2026-04-22 01:31 28.00499 -82.04503 1082 ft 138 kts 266°
2026-04-22 01:31 27.99977 -82.05246 962 ft 124 kts 184°
2026-04-22 01:31 27.99269 -82.04990 856 ft 103 kts 122°
2026-04-22 01:31 27.99071 -82.04344 651 ft 80 kts 92°
2026-04-22 01:32 27.99046 -82.03719 433 ft 76 kts 89°
2026-04-22 01:32 27.99041 -82.03153 278 ft 67 kts 88°
2026-04-22 01:32 27.99037 -82.02665 173 ft 58 kts 88°
2026-04-22 01:32 27.99041 -82.02283 139 ft 37 kts 88°
2026-04-22 01:33 27.99042 -82.01916 138 ft 54 kts 90°
2026-04-22 01:33 27.99039 -82.01551 137 ft 41 kts 89°
2026-04-22 01:33 27.99040 -82.01267 139 ft 33 kts 90°
2026-04-22 01:33 27.99042 -82.01044 141 ft 23 kts 90°
2026-04-22 01:34 27.99040 -82.00874 144 ft 22 kts 95°
2026-04-22 01:34 27.99007 -82.00818 144 ft 0 kts 192°
2026-04-22 01:35 27.98977 -82.00801 144 ft 20 kts 142°
2026-04-22 01:35 27.98812 -82.00753 139 ft 23 kts 178°
2026-04-22 01:35 27.98682 -82.00746 139 ft 9 kts 176°
2026-04-22 01:35 27.98674 -82.00746 140 ft 0 kts 181°
2026-04-22 01:36 27.98670 -82.00746 140 ft 4 kts 186°
2026-04-22 01:36 27.98651 -82.00794 139 ft 0 kts 266°
2026-04-22 01:36 27.98651 -82.00797 139 ft 0 kts 266°